Location: Unspecified
(0.0000°N, 0.0000°E)
Time: 09:45:50
(UTC+00:00)

Vanguard 3 - Pass Details

Date: 02 October 2023
Orbit: 507 x 3241 km, 33.3° (Epoch: 06 December)

Event Time Altitude Azimuth Distance (km) Brightness Sun altitude
Rises 10:06:47 0° 215° (SW) 5,617 11.3 64.1°
Reaches altitude 10° 10:11:01 10° 203° (SSW) 5,004 11.2 65.1°
Maximum altitude 10:23:48 29° 148° (SSE) 4,469 11.6 68.3°
Drops below altitude 10° 10:39:22 10° 96° (E) 6,169 12.1 72.1°
Sets 10:45:16 0° 86° (E) 7,099 12.2 73.6°
